TVF16HY LEMD-LFPO

Flight info

Callsign TVF16HY
Flight time 1h 25m
Altitude 34000
Route RBO N867 OSTIX DCT GASMO DCT DGO DCT ABRIX DCT CNA DCT TUDRA/N0416F280 DCT BEVOL UT158 AMB
Aircraft B738/M-SDE2E3FGHIRWXY/LB1

Departure

Time 2026-05-07 17:43
Airport Adolfo Suárez Madrid–Barajas Airport (LEMD)

Arrival

Time 2026-05-07 19:08
Airport Paris-Orly Airport (LFPO)
Time Latitude Longitude Altitude Speed Heading
2026-05-07 17:04 40.46499 -3.56801 1979 ft 0 kts 273°
2026-05-07 17:25 40.46499 -3.56798 1979 ft 3 kts 273°
2026-05-07 17:25 40.46498 -3.56773 1979 ft 3 kts 273°
2026-05-07 17:25 40.46497 -3.56749 1979 ft 3 kts 273°
2026-05-07 17:25 40.46496 -3.56725 1979 ft 3 kts 273°
2026-05-07 17:26 40.46495 -3.56701 1979 ft 3 kts 296°
2026-05-07 17:26 40.46482 -3.56685 1981 ft 3 kts 359°
2026-05-07 17:26 40.46480 -3.56685 1981 ft 0 kts
2026-05-07 17:30 40.46513 -3.56684 1981 ft 6 kts
2026-05-07 17:30 40.46571 -3.56677 1981 ft 10 kts
2026-05-07 17:30 40.46655 -3.56666 1979 ft 15 kts
2026-05-07 17:30 40.46768 -3.56654 1979 ft 17 kts
2026-05-07 17:31 40.46854 -3.56643 1979 ft 7 kts 13°
2026-05-07 17:31 40.46877 -3.56616 1980 ft 7 kts 64°
2026-05-07 17:31 40.46900 -3.56563 1979 ft 7 kts 41°
2026-05-07 17:31 40.46953 -3.56545 1980 ft 10 kts
2026-05-07 17:32 40.47036 -3.56558 1980 ft 14 kts 342°
2026-05-07 17:32 40.47161 -3.56646 1982 ft 16 kts 324°
2026-05-07 17:32 40.47220 -3.56705 1979 ft 15 kts 322°
2026-05-07 17:32 40.47303 -3.56791 1979 ft 16 kts 322°
2026-05-07 17:33 40.47397 -3.56887 1982 ft 19 kts 323°
2026-05-07 17:33 40.47500 -3.56991 1979 ft 18 kts 322°
2026-05-07 17:33 40.47579 -3.57073 1979 ft 12 kts 322°
2026-05-07 17:33 40.47646 -3.57141 1983 ft 12 kts 322°
2026-05-07 17:34 40.47738 -3.57234 1979 ft 23 kts 322°
2026-05-07 17:34 40.47881 -3.57378 1979 ft 26 kts 322°
2026-05-07 17:34 40.48018 -3.57517 1979 ft 24 kts 322°
2026-05-07 17:34 40.48146 -3.57647 1982 ft 23 kts 322°
2026-05-07 17:35 40.48269 -3.57772 1979 ft 22 kts 322°
2026-05-07 17:35 40.48392 -3.57890 1982 ft 21 kts 327°
2026-05-07 17:35 40.48516 -3.57995 1979 ft 21 kts 327°
2026-05-07 17:35 40.48632 -3.58059 1979 ft 17 kts 356°
2026-05-07 17:36 40.48742 -3.58060 1981 ft 13 kts 360°
2026-05-07 17:36 40.48826 -3.58057 1983 ft 12 kts 13°
2026-05-07 17:36 40.48857 -3.57970 1979 ft 11 kts 87°
2026-05-07 17:36 40.48859 -3.57835 1979 ft 20 kts 89°
2026-05-07 17:37 40.48860 -3.57615 1979 ft 29 kts 90°
2026-05-07 17:37 40.48860 -3.57338 1979 ft 30 kts 89°
2026-05-07 17:37 40.48863 -3.57077 1979 ft 28 kts 89°
2026-05-07 17:37 40.48863 -3.56833 1979 ft 26 kts 92°
2026-05-07 17:38 40.48861 -3.56603 1979 ft 24 kts 88°
2026-05-07 17:38 40.48864 -3.56419 1979 ft 15 kts 90°
2026-05-07 17:38 40.48868 -3.56288 1983 ft 14 kts 70°
2026-05-07 17:38 40.48948 -3.56250 1983 ft 13 kts 360°
2026-05-07 17:39 40.49037 -3.56251 1979 ft 13 kts 359°
2026-05-07 17:39 40.49136 -3.56250 1979 ft 16 kts
2026-05-07 17:39 40.49252 -3.56250 1981 ft 16 kts
2026-05-07 17:39 40.49360 -3.56250 1981 ft 15 kts
2026-05-07 17:40 40.49412 -3.56153 1983 ft 14 kts 86°
2026-05-07 17:40 40.49419 -3.56074 1980 ft 7 kts 68°
2026-05-07 17:40 40.49441 -3.56023 1980 ft 7 kts 86°
2026-05-07 17:40 40.49450 -3.55960 1982 ft 8 kts 65°
2026-05-07 17:41 40.49480 -3.55901 1983 ft 1 kts 56°
2026-05-07 17:41 40.49482 -3.55898 1982 ft 3 kts 56°
2026-05-07 17:41 40.49506 -3.55832 1980 ft 9 kts 85°
2026-05-07 17:42 40.49471 -3.55765 1980 ft 9 kts 140°
2026-05-07 17:42 40.49360 -3.55651 1980 ft 52 kts 142°
2026-05-07 17:42 40.48848 -3.55134 1982 ft 131 kts 142°
2026-05-07 17:42 40.47967 -3.54230 2097 ft 186 kts 142°
2026-05-07 17:43 40.46883 -3.53123 2879 ft 199 kts 139°
2026-05-07 17:43 40.45820 -3.52032 4110 ft 187 kts 141°
2026-05-07 17:43 40.44793 -3.50959 4927 ft 203 kts 142°
2026-05-07 17:43 40.43603 -3.49731 5112 ft 229 kts 141°
2026-05-07 17:44 40.42606 -3.48037 5528 ft 240 kts 116°
2026-05-07 17:44 40.41913 -3.46015 6112 ft 247 kts 116°
2026-05-07 17:44 40.41163 -3.43948 6672 ft 252 kts 118°
2026-05-07 17:44 40.40402 -3.41875 7339 ft 252 kts 117°
2026-05-07 17:45 40.39731 -3.39722 7903 ft 261 kts 102°
2026-05-07 17:45 40.39966 -3.37367 8517 ft 267 kts 64°
2026-05-07 17:45 40.41157 -3.35466 9140 ft 274 kts 36°
2026-05-07 17:45 40.42862 -3.34352 9918 ft 276 kts 13°
2026-05-07 17:46 40.44762 -3.33835 10431 ft 288 kts
2026-05-07 17:46 40.46790 -3.33394 10906 ft 300 kts
2026-05-07 17:46 40.48876 -3.32962 11580 ft 305 kts
2026-05-07 17:46 40.50979 -3.32524 12331 ft 307 kts
2026-05-07 17:47 40.53102 -3.32075 13079 ft 310 kts
2026-05-07 17:47 40.55245 -3.31614 13803 ft 314 kts
2026-05-07 17:47 40.57410 -3.31141 14450 ft 317 kts
2026-05-07 17:47 40.59600 -3.30658 15106 ft 320 kts
2026-05-07 17:48 40.61778 -3.30174 15764 ft 323 kts
2026-05-07 17:48 40.64004 -3.29677 16415 ft 326 kts
2026-05-07 17:48 40.66255 -3.29173 17072 ft 329 kts
2026-05-07 17:48 40.68523 -3.28664 17723 ft 332 kts
2026-05-07 17:49 40.70817 -3.28148 18348 ft 336 kts
2026-05-07 17:49 40.73130 -3.27627 18906 ft 339 kts
2026-05-07 17:49 40.75463 -3.27102 19464 ft 341 kts
2026-05-07 17:49 40.77818 -3.26570 20038 ft 344 kts
2026-05-07 17:50 40.80190 -3.26035 20584 ft 348 kts
2026-05-07 17:50 40.82632 -3.25485 20723 ft 365 kts
2026-05-07 17:50 40.85160 -3.24916 20859 ft 381 kts
2026-05-07 17:50 40.87844 -3.24309 21131 ft 391 kts
2026-05-07 17:51 40.90516 -3.23703 21586 ft 396 kts
2026-05-07 17:51 40.93239 -3.23085 22171 ft 397 kts
2026-05-07 17:51 40.95978 -3.22462 22716 ft 400 kts
2026-05-07 17:51 40.98729 -3.21836 23217 ft 403 kts
2026-05-07 17:52 41.01513 -3.21203 23668 ft 407 kts
2026-05-07 17:52 41.04310 -3.20567 24124 ft 408 kts
2026-05-07 17:52 41.07109 -3.19929 24633 ft 408 kts
2026-05-07 17:52 41.09919 -3.19289 24900 ft 415 kts
2026-05-07 17:53 41.12810 -3.18632 24972 ft 427 kts
2026-05-07 17:53 41.15777 -3.17957 25041 ft 438 kts
2026-05-07 17:53 41.18812 -3.17265 25169 ft 446 kts
2026-05-07 17:53 41.21846 -3.16570 25465 ft 449 kts
2026-05-07 17:54 41.24924 -3.15863 25917 ft 449 kts
2026-05-07 17:54 41.27998 -3.15156 26355 ft 448 kts
2026-05-07 17:54 41.31079 -3.14449 26725 ft 449 kts
2026-05-07 17:54 41.34166 -3.13740 27042 ft 452 kts
2026-05-07 17:55 41.37272 -3.13027 27370 ft 454 kts
2026-05-07 17:55 41.40387 -3.12310 27718 ft 455 kts
2026-05-07 17:55 41.43510 -3.11591 28070 ft 456 kts
2026-05-07 17:55 41.46641 -3.10869 28386 ft 457 kts
2026-05-07 17:56 41.49779 -3.10145 28693 ft 459 kts
2026-05-07 17:56 41.52929 -3.09423 29059 ft 459 kts
2026-05-07 17:56 41.56082 -3.08708 29331 ft 461 kts
2026-05-07 17:56 41.59245 -3.07996 29700 ft 460 kts
2026-05-07 17:57 41.62394 -3.07285 30160 ft 457 kts
2026-05-07 17:57 41.64469 -3.06815 30447 ft 455 kts
2026-05-07 17:57 41.68634 -3.05870 30916 ft 453 kts
2026-05-07 17:57 41.71741 -3.05165 31207 ft 454 kts
2026-05-07 17:58 41.78013 -3.03735 31355 ft 465 kts
2026-05-07 17:58 41.81205 -3.03002 31652 ft 464 kts
2026-05-07 17:58 41.84376 -3.02269 32118 ft 460 kts
2026-05-07 17:59 41.87513 -3.01542 32621 ft 455 kts
2026-05-07 17:59 41.90619 -3.00823 33026 ft 452 kts
2026-05-07 17:59 41.93720 -3.00107 33322 ft 452 kts
2026-05-07 17:59 41.96817 -2.99392 33578 ft 452 kts
2026-05-07 18:00 41.99922 -2.98675 33829 ft 452 kts
2026-05-07 18:00 42.03024 -2.97952 33935 ft 455 kts
2026-05-07 18:00 42.09273 -2.96508 33938 ft 455 kts
2026-05-07 18:01 42.15467 -2.95069 33937 ft 449 kts
2026-05-07 18:01 42.21614 -2.93639 33936 ft 448 kts
2026-05-07 18:02 42.30832 -2.91490 33927 ft 449 kts
2026-05-07 18:03 42.36990 -2.90051 33937 ft 449 kts
2026-05-07 18:03 42.43198 -2.88569 33942 ft 459 kts
2026-05-07 18:04 42.49236 -2.85382 33939 ft 472 kts 25°
2026-05-07 18:04 42.54923 -2.81013 33922 ft 474 kts 26°
2026-05-07 18:05 42.60648 -2.76567 33926 ft 474 kts 26°
2026-05-07 18:05 42.66385 -2.72174 33916 ft 473 kts 26°
2026-05-07 18:06 42.72127 -2.67812 33917 ft 473 kts 25°
2026-05-07 18:06 42.77868 -2.63449 33941 ft 472 kts 26°
2026-05-07 18:06 42.80736 -2.61265 34115 ft 472 kts 26°
2026-05-07 18:07 42.83611 -2.59073 34270 ft 474 kts 26°
2026-05-07 18:07 42.86493 -2.56874 34429 ft 475 kts 26°
2026-05-07 18:07 42.89377 -2.54670 34649 ft 475 kts 26°
2026-05-07 18:07 42.92265 -2.52459 34890 ft 474 kts 26°
2026-05-07 18:08 42.95114 -2.50276 34907 ft 478 kts 26°
2026-05-07 18:08 43.00907 -2.45831 34914 ft 476 kts 26°
2026-05-07 18:09 43.06656 -2.41409 34906 ft 473 kts 26°
2026-05-07 18:09 43.12374 -2.37001 34907 ft 470 kts 26°
2026-05-07 18:10 43.18061 -2.32609 34913 ft 468 kts 26°
2026-05-07 18:10 43.23726 -2.28226 34895 ft 468 kts 27°
2026-05-07 18:11 43.29440 -2.23795 34913 ft 476 kts 27°
2026-05-07 18:11 43.35233 -2.19291 34899 ft 479 kts 27°
2026-05-07 18:12 43.41037 -2.14768 34904 ft 480 kts 27°
2026-05-07 18:12 43.46848 -2.10229 34897 ft 481 kts 27°
2026-05-07 18:13 43.52628 -2.05705 34900 ft 480 kts 27°
2026-05-07 18:13 43.58431 -2.01152 34894 ft 480 kts 27°
2026-05-07 18:14 43.64235 -1.96590 34896 ft 479 kts 27°
2026-05-07 18:14 43.70019 -1.92034 34898 ft 478 kts 28°
2026-05-07 18:15 43.75787 -1.87479 34885 ft 477 kts 28°
2026-05-07 18:15 43.81538 -1.82926 34892 ft 476 kts 28°
2026-05-07 18:16 43.87285 -1.78367 34895 ft 476 kts 28°
2026-05-07 18:16 43.93027 -1.73801 34896 ft 475 kts 28°
2026-05-07 18:17 43.98764 -1.69228 34908 ft 475 kts 28°
2026-05-07 18:17 44.04499 -1.64647 34909 ft 476 kts 28°
2026-05-07 18:18 44.10237 -1.60054 34896 ft 476 kts 28°
2026-05-07 18:18 44.15973 -1.55451 34898 ft 476 kts 28°
2026-05-07 18:19 44.21675 -1.50865 34909 ft 476 kts 28°
2026-05-07 18:19 44.27411 -1.46242 34905 ft 476 kts 28°
2026-05-07 18:20 44.33149 -1.41606 34910 ft 476 kts 29°
2026-05-07 18:20 44.37922 -1.37742 34906 ft 477 kts 29°
2026-05-07 18:21 44.43664 -1.33084 34915 ft 477 kts 29°
2026-05-07 18:21 44.49402 -1.28418 34907 ft 477 kts 29°
2026-05-07 18:22 44.55144 -1.23738 34905 ft 477 kts 29°
2026-05-07 18:22 44.60880 -1.19052 34908 ft 477 kts 29°
2026-05-07 18:23 44.66613 -1.14358 34904 ft 477 kts 29°
2026-05-07 18:23 44.72346 -1.09653 34913 ft 477 kts 29°
2026-05-07 18:24 44.78072 -1.04950 34928 ft 477 kts 29°
2026-05-07 18:24 44.83806 -1.00231 34927 ft 476 kts 29°
2026-05-07 18:25 44.89530 -0.95501 34942 ft 476 kts 29°
2026-05-07 18:25 44.95210 -0.90794 34940 ft 476 kts 29°
2026-05-07 18:26 45.00926 -0.86046 34939 ft 476 kts 30°
2026-05-07 18:26 45.06647 -0.81284 34939 ft 477 kts 30°
2026-05-07 18:27 45.12367 -0.76513 34924 ft 477 kts 30°
2026-05-07 18:27 45.18085 -0.71732 34930 ft 477 kts 30°
2026-05-07 18:28 45.23798 -0.66943 34940 ft 477 kts 30°
2026-05-07 18:28 45.29487 -0.62164 34938 ft 478 kts 30°
2026-05-07 18:29 45.35209 -0.57344 34938 ft 479 kts 30°
2026-05-07 18:29 45.40941 -0.52506 34942 ft 479 kts 30°
2026-05-07 18:30 45.46718 -0.47617 34949 ft 486 kts 30°
2026-05-07 18:30 45.52576 -0.42646 34942 ft 491 kts 30°
2026-05-07 18:31 45.58446 -0.37650 34940 ft 491 kts 30°
2026-05-07 18:31 45.64318 -0.32645 34942 ft 492 kts 30°
2026-05-07 18:32 45.69804 -0.26923 34954 ft 492 kts 40°
2026-05-07 18:32 45.74964 -0.20489 34941 ft 492 kts 41°
2026-05-07 18:33 45.80108 -0.14038 34950 ft 491 kts 40°
2026-05-07 18:33 45.85282 -0.07629 34945 ft 491 kts 40°
2026-05-07 18:34 45.90469 -0.01244 34955 ft 491 kts 40°
2026-05-07 18:34 45.95659 0.05145 34947 ft 490 kts 40°
2026-05-07 18:35 46.00838 0.11543 34956 ft 491 kts 40°
2026-05-07 18:35 46.06015 0.17958 34953 ft 491 kts 40°
2026-05-07 18:36 46.11160 0.24350 34949 ft 491 kts 40°
2026-05-07 18:36 46.16336 0.30797 34956 ft 492 kts 40°
2026-05-07 18:37 46.21507 0.37255 34960 ft 491 kts 40°
2026-05-07 18:37 46.26678 0.43730 34963 ft 491 kts 40°
2026-05-07 18:38 46.31838 0.50208 34955 ft 491 kts 40°
2026-05-07 18:38 46.36998 0.56703 34967 ft 491 kts 40°
2026-05-07 18:39 46.42156 0.63212 34968 ft 492 kts 40°
2026-05-07 18:39 46.47312 0.69736 34961 ft 492 kts 40°
2026-05-07 18:40 46.52650 0.75939 34955 ft 491 kts 29°
2026-05-07 18:40 46.58825 0.79841 34966 ft 486 kts 11°
2026-05-07 18:41 46.65419 0.81886 34970 ft 484 kts
2026-05-07 18:41 46.72039 0.83850 34579 ft 490 kts
2026-05-07 18:41 46.75376 0.84877 34013 ft 488 kts
2026-05-07 18:42 46.78700 0.85922 33276 ft 488 kts
2026-05-07 18:42 46.81994 0.86971 32840 ft 481 kts
2026-05-07 18:42 46.85256 0.88012 32315 ft 477 kts 10°
2026-05-07 18:42 46.88480 0.89042 31861 ft 472 kts 10°
2026-05-07 18:43 46.91673 0.90061 31390 ft 467 kts 10°
2026-05-07 18:43 46.94798 0.91056 30941 ft 463 kts 10°
2026-05-07 18:43 46.97970 0.92068 30492 ft 459 kts 10°
2026-05-07 18:43 47.01033 0.93046 30046 ft 455 kts 10°
2026-05-07 18:44 47.04109 0.94026 29632 ft 448 kts 10°
2026-05-07 18:44 47.07133 0.94985 29169 ft 443 kts 10°
2026-05-07 18:44 47.10132 0.95935 28720 ft 438 kts 10°
2026-05-07 18:44 47.13099 0.96876 28259 ft 433 kts 11°
2026-05-07 18:45 47.16027 0.97806 27797 ft 429 kts 11°
2026-05-07 18:45 47.18942 0.98733 27361 ft 425 kts 11°
2026-05-07 18:45 47.21822 0.99650 26903 ft 422 kts 11°
2026-05-07 18:45 47.24682 1.00562 26458 ft 418 kts 11°
2026-05-07 18:46 47.27518 1.01468 26019 ft 415 kts 11°
2026-05-07 18:46 47.30293 1.02356 25592 ft 412 kts 11°
2026-05-07 18:46 47.33088 1.03250 25160 ft 410 kts 11°
2026-05-07 18:46 47.35866 1.04141 24728 ft 407 kts 11°
2026-05-07 18:47 47.38626 1.05026 24309 ft 405 kts 11°
2026-05-07 18:47 47.41371 1.05907 23882 ft 403 kts 11°
2026-05-07 18:47 47.44096 1.06846 23419 ft 401 kts 15°
2026-05-07 18:47 47.46754 1.08076 22953 ft 399 kts 18°
2026-05-07 18:48 47.49358 1.09435 22507 ft 396 kts 19°
2026-05-07 18:48 47.51941 1.10823 22081 ft 392 kts 19°
2026-05-07 18:48 47.54503 1.12192 21652 ft 389 kts 19°
2026-05-07 18:48 47.57049 1.13533 21232 ft 387 kts 19°
2026-05-07 18:49 47.59550 1.14833 20817 ft 384 kts 19°
2026-05-07 18:49 47.62070 1.16132 20401 ft 381 kts 19°
2026-05-07 18:49 47.64569 1.17413 19987 ft 379 kts 18°
2026-05-07 18:49 47.67062 1.18688 19576 ft 377 kts 18°
2026-05-07 18:50 47.69542 1.19956 19173 ft 375 kts 18°
2026-05-07 18:50 47.72007 1.21218 18773 ft 374 kts 19°
2026-05-07 18:50 47.74459 1.22474 18366 ft 372 kts 19°
2026-05-07 18:50 47.76903 1.23727 17908 ft 371 kts 19°
2026-05-07 18:51 47.79335 1.24976 17477 ft 369 kts 18°
2026-05-07 18:51 47.81750 1.26218 17062 ft 366 kts 18°
2026-05-07 18:51 47.84148 1.27452 16646 ft 363 kts 18°
2026-05-07 18:51 47.86529 1.28678 16251 ft 361 kts 18°
2026-05-07 18:52 47.88893 1.29896 15858 ft 358 kts 18°
2026-05-07 18:52 47.91237 1.31106 15470 ft 355 kts 18°
2026-05-07 18:52 47.93542 1.32296 15083 ft 353 kts 18°
2026-05-07 18:52 47.95877 1.33504 14697 ft 351 kts 18°
2026-05-07 18:53 47.98176 1.34694 14307 ft 349 kts 18°
2026-05-07 18:53 48.00436 1.35864 13936 ft 347 kts 18°
2026-05-07 18:53 48.02710 1.37043 13520 ft 345 kts 18°
2026-05-07 18:53 48.04974 1.38217 13111 ft 343 kts 18°
2026-05-07 18:54 48.07138 1.39694 12743 ft 341 kts 31°
2026-05-07 18:54 48.09086 1.41682 12447 ft 337 kts 34°
2026-05-07 18:54 48.10980 1.43706 12122 ft 333 kts 34°
2026-05-07 18:54 48.12874 1.45685 11812 ft 329 kts 34°
2026-05-07 18:55 48.14754 1.47618 11506 ft 326 kts 33°
2026-05-07 18:55 48.16618 1.49509 11211 ft 322 kts 33°
2026-05-07 18:55 48.18469 1.51380 10911 ft 319 kts 33°
2026-05-07 18:55 48.20301 1.53234 10613 ft 316 kts 33°
2026-05-07 18:56 48.22115 1.55072 10312 ft 313 kts 33°
2026-05-07 18:56 48.23919 1.56901 10023 ft 310 kts 33°
2026-05-07 18:56 48.25661 1.58796 9707 ft 308 kts 36°
2026-05-07 18:56 48.27344 1.60768 9382 ft 306 kts 37°
2026-05-07 18:57 48.28984 1.62723 9062 ft 303 kts 37°
2026-05-07 18:57 48.30630 1.64688 8744 ft 301 kts 37°
2026-05-07 18:57 48.32252 1.66619 8406 ft 293 kts 37°
2026-05-07 18:57 48.33829 1.68492 8048 ft 286 kts 37°
2026-05-07 18:58 48.35372 1.70321 7689 ft 279 kts 37°
2026-05-07 18:58 48.36886 1.72113 7327 ft 275 kts 37°
2026-05-07 18:58 48.38379 1.73880 6979 ft 272 kts 37°
2026-05-07 18:58 48.39863 1.75637 6627 ft 271 kts 37°
2026-05-07 18:59 48.41354 1.77401 6303 ft 274 kts 37°
2026-05-07 18:59 48.42849 1.79171 5974 ft 273 kts 37°
2026-05-07 18:59 48.44339 1.80936 5656 ft 272 kts 37°
2026-05-07 18:59 48.45827 1.82701 5342 ft 271 kts 37°
2026-05-07 19:00 48.47308 1.84459 5031 ft 270 kts 38°
2026-05-07 19:00 48.48784 1.86212 4730 ft 269 kts 38°
2026-05-07 19:00 48.50252 1.87957 4421 ft 268 kts 38°
2026-05-07 19:00 48.51713 1.89695 4120 ft 267 kts 39°
2026-05-07 19:01 48.53146 1.91402 4013 ft 257 kts 39°
2026-05-07 19:01 48.54523 1.93043 3986 ft 246 kts 39°
2026-05-07 19:01 48.55815 1.94582 3973 ft 234 kts 39°
2026-05-07 19:01 48.57060 1.96067 3973 ft 221 kts 39°
2026-05-07 19:02 48.58235 1.97469 3973 ft 209 kts 39°
2026-05-07 19:02 48.59367 1.98821 4007 ft 205 kts 39°
2026-05-07 19:02 48.60497 2.00171 4018 ft 215 kts 39°
2026-05-07 19:02 48.61551 2.01952 3997 ft 237 kts 62°
2026-05-07 19:03 48.62272 2.04183 3994 ft 236 kts 62°
2026-05-07 19:03 48.63039 2.06309 3979 ft 223 kts 62°
2026-05-07 19:03 48.63763 2.08341 3727 ft 216 kts 62°
2026-05-07 19:03 48.64457 2.10317 3460 ft 210 kts 63°
2026-05-07 19:04 48.65134 2.12245 3189 ft 205 kts 62°
2026-05-07 19:04 48.65793 2.14116 2920 ft 199 kts 62°
2026-05-07 19:04 48.66434 2.15936 2669 ft 192 kts 63°
2026-05-07 19:04 48.67046 2.17672 2408 ft 186 kts 63°
2026-05-07 19:05 48.67645 2.19373 2166 ft 179 kts 62°
2026-05-07 19:05 48.68213 2.20984 1924 ft 167 kts 62°
2026-05-07 19:05 48.68729 2.22447 1723 ft 151 kts 62°
2026-05-07 19:05 48.69228 2.23862 1580 ft 150 kts 62°
2026-05-07 19:06 48.69558 2.24775 1421 ft 151 kts 62°
2026-05-07 19:06 48.70507 2.27529 1048 ft 140 kts 64°
2026-05-07 19:06 48.70978 2.28812 798 ft 139 kts 63°
2026-05-07 19:07 48.71428 2.30105 657 ft 140 kts 63°
2026-05-07 19:07 48.71897 2.31393 466 ft 136 kts 62°
2026-05-07 19:07 48.72326 2.32622 316 ft 125 kts 64°
2026-05-07 19:07 48.72693 2.33658 307 ft 93 kts 61°
2026-05-07 19:08 48.72907 2.34260 300 ft 37 kts 61°
2026-05-07 19:08 48.72998 2.34625 300 ft 32 kts 79°
2026-05-07 19:08 48.73026 2.34912 300 ft 22 kts 82°
2026-05-07 19:08 48.73039 2.35136 302 ft 20 kts 98°
2026-05-07 19:09 48.72962 2.35296 305 ft 18 kts 150°
2026-05-07 19:09 48.72902 2.35424 300 ft 15 kts 82°
2026-05-07 19:09 48.72958 2.35522 302 ft 13 kts 15°
2026-05-07 19:09 48.73031 2.35591 302 ft 13 kts 55°
2026-05-07 19:10 48.73077 2.35691 302 ft 6 kts 62°
2026-05-07 19:10 48.73063 2.35739 304 ft 5 kts 144°
2026-05-07 19:10 48.73028 2.35763 300 ft 5 kts 159°
2026-05-07 19:10 48.72994 2.35783 303 ft 5 kts 158°
2026-05-07 19:11 48.72985 2.35789 303 ft 0 kts 159°
2026-05-07 19:12 48.69984 2.25934 1218 ft 149 kts 64°
2026-05-07 19:12 48.70593 2.27768 999 ft 140 kts 62°
2026-05-07 19:12 48.70909 2.28621 821 ft 139 kts 63°